Sanborn, NY

12:38 AM EST on February 25, 2017 (GMT -0500)
Niagara Falls International

Weather History for KIAG - February, 2013

Change the Weather History Date:

Thursday, February 14, 2013

  Actual Average Record
Temperature  
Mean Temperature 29 °F -  
Max Temperature 37 °F 31 °F 46 °F (2011)
Min Temperature 21 °F 17 °F -11 °F (2016)
Degree Days  
Heating Degree Days 36    
Moisture  
Dew Point 26 °F    
Average Humidity 81    
Maximum Humidity 93    
Minimum Humidity 64    
Precipitation  
Precipitation 0.07 in - - ()
Snow  
Snow 0.00 in - - ()
Snow Depth 1.00 in    
Sea Level Pressure  
Sea Level Pressure 29.84 in    
Wind  
Wind Speed 6 mph (SSW)    
Max Wind Speed 23 mph    
Max Gust Speed 33 mph    
Visibility 6 miles    
Events Rain , Snow    
Averages and records for this station are not official NWS values.
T = Trace of Precipitation, MM = Missing Value Source: NWS Daily Summary

Daily Weather History Graph

Daily Weather History Graph

Search for Another Location

Airport or City:

Trip Planner

Search our weather history database for the weather conditions in past years. The results will help you decide how hot, cold, wet, or windy it might be!

Date:

Astronomy

Feb. 14, 2013 Rise Set
Actual Time 7:14 AM EST 5:45 PM EST
Civil Twilight 6:45 AM EST 6:15 PM EST
Nautical Twilight 6:12 AM EST 6:48 PM EST
Astronomical Twilight 5:39 AM EST 7:21 PM EST
Moon 9:06 AM EST (2/14) 10:56 PM EST (2/14)
Length of Visible Light 11h 29m
Length of Day
10h 31m
Waxing Crescent, 21% of the Moon is Illuminated
Feb 14
Waxing Crescent
Feb 17
First Quarter
Feb 25
Full
Mar 4
Last Quarter
Mar 11
New

Hourly Weather History & Observations

Time (EST) Temp. Windchill Dew Point Humidity Pressure Visibility Wind Dir Wind Speed Gust Speed Precip Events Conditions
12:53 AM 21.9 °F - 19.0 °F 89% 29.86 in 5.0 mi Calm Calm - N/A   Clear
1:53 AM 21.9 °F - 18.0 °F 85% 29.87 in 5.0 mi Calm Calm - N/A   Clear
2:53 AM 21.9 °F - 18.0 °F 85% 29.87 in 4.0 mi Calm Calm - N/A   Scattered Clouds
3:53 AM 21.9 °F - 19.0 °F 89% 29.88 in 3.0 mi Calm Calm - N/A   Overcast
4:53 AM 25.0 °F 17.1 °F 21.0 °F 85% 29.90 in 5.0 mi WSW 6.9 mph - N/A   Overcast
5:06 AM 24.8 °F 19.1 °F 21.2 °F 86% 29.85 in 5.0 mi WSW 4.6 mph - N/A   Overcast
5:53 AM 27.0 °F 21.6 °F 23.0 °F 85% 29.90 in 6.0 mi SW 4.6 mph - N/A   Overcast
6:09 AM 26.6 °F 21.2 °F 23.0 °F 86% 29.85 in 6.0 mi SSW 4.6 mph - N/A   Overcast
6:53 AM 27.0 °F 21.6 °F 21.9 °F 81% 29.91 in 5.0 mi South 4.6 mph - N/A   Haze
7:00 AM 26.6 °F 20.0 °F 23.0 °F 86% 29.86 in 5.0 mi South 5.8 mph - N/A   Overcast
7:24 AM 26.6 °F 19.1 °F 23.0 °F 86% 29.86 in 7.0 mi SSW 6.9 mph - N/A   Overcast
7:53 AM 28.0 °F 20.0 °F 23.0 °F 81% 29.92 in 7.0 mi South 8.1 mph - N/A   Overcast
8:53 AM 28.9 °F 19.8 °F 21.9 °F 75% 29.92 in 7.0 mi South 10.4 mph - N/A   Overcast
9:53 AM 30.9 °F 21.7 °F 21.9 °F 69% 29.91 in 8.0 mi South 11.5 mph - N/A   Mostly Cloudy
10:53 AM 34.0 °F 27.2 °F 23.0 °F 64% 29.90 in 10.0 mi South 8.1 mph - N/A   Mostly Cloudy
11:53 AM 35.1 °F 26.9 °F 25.0 °F 67% 29.88 in 7.0 mi SSW 11.5 mph - N/A   Overcast
12:39 PM 35.6 °F 26.6 °F 24.8 °F 65% 29.83 in 7.0 mi SW 13.8 mph 24.2 mph N/A   Overcast
12:53 PM 35.1 °F 26.9 °F 26.1 °F 70% 29.87 in 7.0 mi SSW 11.5 mph - N/A   Overcast
1:17 PM 35.6 °F 27.5 °F 26.6 °F 70% 29.81 in 7.0 mi SSW 11.5 mph - N/A   Overcast
1:53 PM 36.0 °F 27.5 °F 27.0 °F 70% 29.85 in 7.0 mi SSW 12.7 mph 20.7 mph N/A   Overcast
2:53 PM 37.0 °F 29.3 °F 27.0 °F 67% 29.84 in 7.0 mi South 11.5 mph - N/A   Overcast
2:59 PM 37.4 °F 30.8 °F 26.6 °F 65% 29.79 in 9.0 mi South 9.2 mph - 0.00 in Snow Light Snow
3:53 PM 36.0 °F 30.3 °F 28.0 °F 73% 29.83 in 9.0 mi South 6.9 mph - 0.00 in Rain , Snow Light Rain
4:38 PM 33.8 °F 27.7 °F 30.2 °F 87% 29.79 in 3.0 mi South 6.9 mph - 0.00 in Snow Light Snow
4:53 PM 34.0 °F 28.0 °F 30.9 °F 89% 29.83 in 3.0 mi South 6.9 mph - 0.00 in Snow Light Snow
5:11 PM 33.8 °F 28.6 °F 30.2 °F 87% 29.78 in 2.5 mi South 5.8 mph - 0.01 in Snow Light Snow
5:53 PM 34.0 °F 27.2 °F 30.9 °F 89% 29.82 in 2.5 mi South 8.1 mph - 0.01 in Rain , Snow Light Rain
6:05 PM 33.8 °F 27.7 °F 30.2 °F 87% 29.78 in 3.0 mi South 6.9 mph - 0.00 in Rain , Snow Light Rain
6:53 PM 34.0 °F 28.0 °F 32.0 °F 92% 29.82 in 6.0 mi South 6.9 mph - 0.00 in Rain Light Rain
7:35 PM 35.6 °F 25.5 °F 30.2 °F 81% 29.78 in 5.0 mi SSW 17.3 mph 21.9 mph 0.03 in Snow Light Snow
7:53 PM 35.1 °F 25.9 °F 30.9 °F 85% 29.82 in 5.0 mi SSW 13.8 mph - 0.03 in Rain Light Rain
8:09 PM 33.8 °F 24.8 °F 30.2 °F 87% 29.78 in 4.0 mi SSW 12.7 mph - 0.01 in Snow Light Snow
8:46 PM 33.8 °F 24.8 °F 30.2 °F 87% 29.77 in 3.0 mi SSW 12.7 mph - 0.02 in Snow Light Snow
8:53 PM 33.1 °F 24.4 °F 30.9 °F 92% 29.81 in 3.0 mi SSW 11.5 mph - 0.03 in Snow Light Snow
9:25 PM 33.8 °F 25.8 °F 32.0 °F 93% 29.76 in 7.0 mi SSW 10.4 mph - 0.00 in Rain , Snow Light Rain
9:53 PM 35.1 °F 27.9 °F 32.0 °F 89% 29.80 in 8.0 mi SSW 9.2 mph - 0.00 in Rain Light Rain
10:53 PM 37.0 °F 28.1 °F 32.0 °F 82% 29.78 in 10.0 mi SW 15.0 mph 23.0 mph 0.00 in Rain Light Rain
11:32 PM 37.4 °F 26.4 °F 30.2 °F 75% 29.74 in 9.0 mi SW 23.0 mph 33.4 mph N/A   Overcast
11:53 PM 37.0 °F 26.2 °F 30.0 °F 76% 29.78 in 10.0 mi WSW 21.9 mph 29.9 mph N/A   Overcast